#timestamp,LO_Frequency,Hit,StdDev 
1565625615.7,286047008.4,P
1565625635.6,286047007.1,N
1565625655.4,286047003.2,N
1565625675.3,286047000.3,N
1565625695.1,286047000.0,N
1565625696.0,286047000.0,N
1565625715.8,286047001.9,N
1565625735.7,286047001.5,N
1565625755.5,286047004.3,N
1565625775.3,286047000.4,N
1565625795.2,286046999.9,N
1565625815.0,286047002.1,N
1565625815.9,286047002.1,N
1565625835.8,286046999.8,N
1565625855.6,286047002.0,N
1565625875.4,286047000.1,N
1565625895.3,286047000.8,N
1565625915.1,286047000.8,N
1565625935.8,286046996.5,N
1565625955.7,286046996.7,N
1565625975.5,286046995.2,N
1565625995.4,286046993.4,N
1565626015.2,286046999.0,N
1565626035.0,286047002.1,N
1565626035.9,286047002.1,N
1565626055.8,286047007.9,N
1565626075.6,286047011.8,Y
1565626095.4,286047013.7,P
1565626115.3,286047017.0,N
1565626135.1,286047021.3,P
1565626155.9,286047022.2,N
1565626175.7,286047022.0,N
1565626195.5,286047015.8,N
1565626215.4,286047011.4,N
1565626235.2,286047008.5,N
1565626255.0,286047003.1,N
1565626256.0,286047003.1,N
1565626275.8,286047000.0,N
1565626295.6,286047000.1,N
1565626315.5,286047004.2,N
1565626335.3,286047001.3,N
1565626355.1,286047002.1,N
1565626375.9,286046999.8,N
1565626395.7,286046999.7,N
1565626415.6,286046999.8,N
1565626435.4,286047000.5,N
1565626455.2,286047001.0,N
1565626475.1,286047000.4,N
1565626476.0,286047000.4,N
1565626495.8,286047005.5,N
1565626515.7,286047010.8,N
1565626535.5,286047008.4,N
1565626555.3,286047008.2,N
1565626575.2,286047010.5,N
1565626595.0,286047010.0,N
1565626595.9,286047010.0,N
1565626615.7,286047012.1,N
1565626635.6,286047008.7,N
1565626655.4,286047006.1,N
1565626675.3,286047005.7,N
1565626695.1,286047002.0,N
1565626696.0,286047002.0,N
1565626715.8,286046998.8,N
1565626735.7,286046996.5,N
1565626755.5,286046997.4,N
1565626775.4,286046997.2,N
1565626795.2,286046996.5,N
1565626815.0,286046999.4,N
1565626815.9,286046999.4,N
1565626835.8,286046997.7,N
1565626855.6,286046997.1,N
1565626875.4,286047004.4,N
1565626895.3,286047013.7,N
1565626915.1,286047021.6,Y
1565626935.9,286047023.0,P
1565626955.7,286047021.8,N
1565626975.5,286047021.2,N
1565626995.4,286047015.7,N
1565627015.2,286047014.2,N
1565627035.1,286047021.8,Y
1565627036.0,286047021.8,P
1565627055.8,286047006.7,N
1565627075.6,286047002.0,N
1565627095.5,286046995.0,N
1565627115.3,286046992.3,N
1565627135.1,286046991.5,N
1565627155.9,286046988.0,N
1565627175.7,286046983.8,N
1565627195.6,286046984.2,N
1565627215.4,286046983.8,N
1565627235.2,286046984.1,N
1565627255.1,286046984.2,N
1565627256.0,286046984.2,N
1565627275.8,286046986.3,N
1565627295.6,286046984.1,N
1565627315.5,286046984.9,N
1565627335.3,286046984.9,N
1565627355.2,286046988.4,N
1565627375.9,286046987.2,N
1565627395.7,286046988.7,N
1565627415.6,286046989.8,N
1565627435.4,286046987.8,N
1565627455.2,286046987.1,N
1565627475.1,286046983.7,N
1565627476.0,286046983.7,N
1565627495.8,286046986.5,N
1565627515.7,286046987.7,N
1565627535.5,286046986.2,N
1565627555.3,286046982.2,N
1565627575.2,286046983.0,N
1565627595.0,286046983.3,N
1565627595.9,286046983.3,Y
1565627615.8,286046995.3,P
1565627635.6,286046995.2,N
1565627655.4,286046995.4,N
1565627675.3,286046995.2,N
1565627695.1,286046994.6,N
1565627715.8,286046994.6,N
1565627735.7,286046991.7,Y
1565627755.5,286047002.5,P
1565627775.4,286047005.5,N
1565627795.2,286047003.1,N
1565627815.0,286047006.9,N
1565627815.9,286047006.9,N
1565627835.8,286047006.7,N
1565627855.6,286047006.6,N
1565627875.5,286047008.4,N
1565627895.3,286047013.4,Y
1565627915.1,286047012.4,P
1565627935.9,286047014.0,P
1565627955.7,286047006.5,N
1565627975.5,286047003.7,N
1565627995.4,286046999.8,N
1565628015.2,286046996.9,N
1565628035.1,286046995.1,N
1565628036.0,286046995.1,N
1565628055.8,286046994.5,N
1565628075.6,286046993.4,N
1565628095.5,286046996.4,N
1565628115.3,286046994.8,N
1565628135.1,286046999.6,N
1565628155.9,286047006.0,N
1565628175.7,286047009.6,N
1565628195.6,286047014.2,N
1565628215.4,286047019.5,N
1565628235.2,286047017.8,N
1565628255.1,286047022.0,N
1565628256.0,286047022.0,N
1565628275.8,286047023.3,N
1565628295.6,286047019.2,N
1565628315.5,286047019.4,N
1565628335.3,286047023.0,N
1565628355.2,286047023.1,N
1565628375.9,286047024.4,N
1565628395.7,286047026.1,N
1565628415.6,286047028.4,N
1565628435.4,286047028.1,N
1565628455.2,286047028.3,N
1565628475.1,286047026.3,N
1565628476.0,286047026.3,N
1565628495.8,286047026.7,N
1565628515.7,286047025.5,N
1565628535.5,286047027.0,N
1565628555.3,286047030.9,N
1565628575.2,286047031.4,N
1565628595.9,286047028.7,N
1565628615.7,286047031.6,N
1565628635.6,286047032.4,N
1565628655.4,286047035.1,Y
1565628675.3,286047016.5,P
1565628695.1,286047018.7,P
1565628696.0,286047018.7,P
1565628715.8,286047020.1,Y
1565628735.7,286047000.0,P
1565628755.5,286047005.1,N
1565628775.3,286047006.9,N
1565628795.2,286047005.5,N
1565628815.0,286047001.6,N
1565628815.9,286047001.6,N
1565628835.8,286046997.6,N
1565628855.6,286046992.8,N
1565628875.4,286046986.3,N
1565628895.3,286046983.2,N
1565628915.1,286046980.1,N
1565628935.8,286046984.3,N
1565628955.7,286046990.4,N
1565628975.5,286046994.6,N
1565628995.4,286046995.0,N
1565629015.2,286047001.1,N
1565629035.0,286046999.8,N
1565629035.9,286046999.8,N
1565629055.8,286047000.9,N
1565629075.6,286046994.0,N
1565629095.5,286046994.0,N
1565629115.3,286046996.1,N
1565629135.1,286046999.4,N
1565629155.9,286047011.9,N
1565629175.7,286047009.2,N
1565629195.5,286047013.6,N
